Location: *
(31.7833°N, 35.2167°E)
Time: 11:22:30
(UTC+00:00)

Daily predictions for brighter satellites

Satellite Brightness Start Highest point End
(mag) Time Altitude Azimuth Time Altitude Azimuth Time Altitude Azimuth
USA 215 3.5 17:00:53 10° NE 17:07:27 82° NW 17:13:59 10° SW
Cosmos 1980 Rocket 3.7 17:04:31 10° SW 17:09:49 42° WNW 17:15:07 10° N
SJ-11-01 4.4 17:07:56 10° SSE 17:12:29 58° ENE 17:17:04 10° N
Geosat 4.5 17:08:13 10° SSE 17:13:10 63° WSW 17:18:10 10° NNW
SL-4 R/B 2.6 17:13:55 10° SSW 17:18:30 50° SE 17:23:11 10° NE
Cosmos 1842 Rocket 4.4 17:15:51 10° NNW 17:20:11 55° W 17:24:26 10° S
Cosmos 2058 3.0 17:20:50 10° S 17:24:56 58° E 17:29:05 10° NNE
Okean 3 Rocket 3.8 17:21:44 10° SSE 17:26:07 50° E 17:30:30 10° NNE
BREEZE-M DEB (TANK) 3.1 17:23:52 10° SSW 17:26:25 38° ESE 17:32:06 10° NE
SPOT 3 Rocket 3.6 17:24:02 10° SSE 17:29:15 85° ENE 17:34:30 10° NNW
CZ-2C R/B 4.3 17:27:34 10° ENE 17:29:37 12° E 17:30:52 11° ESE
Resurs 1-3 4.3 17:26:23 10° SE 17:30:22 35° ENE 17:34:22 10° N
BREEZE-M DEB (TANK) 2.1 17:28:12 10° NNW 17:30:54 37° NE 17:32:15 16° ESE
Cosmos 371 Rocket 3.5 17:26:24 10° N 17:31:12 57° ENE 17:35:53 10° SSE
Cosmos 1455 4.4 17:32:03 10° NW 17:35:10 25° W 17:38:17 10° SSW
Cosmos 2322 Rocket 2.2 17:30:58 10° SSW 17:36:38 79° ESE 17:42:21 10° NNE
Cosmos 1766 Rocket 3.8 17:32:55 10° SSE 17:37:03 45° E 17:41:10 10° NNE
CZ-3B R/B 0.8 17:35:59 10° WSW 17:38:57 27° S 17:39:45 21° SSE
NOSS 3-1 (C) 4.1 17:35:28 10° SSE 17:39:41 24° ESE 17:44:12 10° ENE
SJ-6B 3.0 17:36:39 10° S 17:40:20 66° WSW 17:44:04 10° NNW
IRIDIUM 106 4.3 17:35:10 10° N 17:40:24 73° E 17:45:35 10° S
Cosmos 1408 Rocket 4.2 17:38:33 11° SSE 17:42:12 33° E 17:46:04 10° NNE
Tsikada Rocket 4.5 17:37:10 10° NNW 17:43:24 63° W 17:49:31 10° S
SL-16 R/B 2.4 17:38:19 10° SSW 17:43:58 78° WNW 17:49:39 10° NNE
ARGOS 3.3 17:38:43 10° SSE 17:44:00 59° ENE 17:49:19 10° N
Aureole 1 Rocket 3.8 17:39:44 10° SSW 17:44:06 67° WNW 17:49:58 10° NNE
Cosmos 332 Rocket 3.8 17:40:02 10° N 17:44:48 67° ENE 17:48:47 15° SSE
Cosmos 2333 Rocket 4.2 17:49:57 10° E 17:49:57 10° E 17:49:59 10° E
ISS -0.6 17:51:34 10° WNW 17:53:47 16° NW 17:56:00 10° N
Cosmos 1242 Rocket 2.5 17:52:20 10° S 17:55:57 88° W 17:59:38 10° N
Delta 7925 Rocket 4.4 17:52:20 10° WSW 17:56:30 30° SSW 17:59:06 20° SSE
Cosmos 44 Rocket 4.1 17:52:31 10° SW 17:57:35 58° WNW 18:02:36 10° NNE
Cosmos 921 Rocket 4.3 17:54:02 10° NNE 17:57:35 25° ENE 17:58:56 21° E
Cosmos 2322 4.4 17:54:44 15° SSE 17:58:25 30° ESE 18:03:16 10° NE
Cosmos 1461 2.7 17:55:45 10° NNW 17:59:44 85° ENE 18:02:01 25° SSE
Cosmos 1869 3.2 17:57:18 10° N 18:01:16 84° E 18:04:00 19° S
Cosmos 1340 Rocket 2.7 17:59:06 10° N 18:03:12 82° E 18:05:52 21° S
In-Cosmos 22 Rocket 4.1 17:58:50 10° S 18:04:12 84° E 18:09:44 10° N
CZ-2C R/B 3.4 18:02:25 22° SE 18:05:37 48° ENE 18:10:36 10° N
Cosmos 2263 Rocket 2.2 18:01:14 10° NNW 18:06:56 71° ENE 18:10:25 24° SSE
DELTA 2 R/B (1) 4.3 18:01:56 10° W 18:07:26 54° NNW 18:12:54 10° ENE
Cosmos 1900 4.5 18:02:55 10° SSW 18:08:03 83° WNW 18:13:14 10° NNE
ERBS 4.1 18:06:27 10° WNW 18:09:12 25° WSW 18:10:52 17° SSW
SL-08 RB Rocket 3.6 18:08:35 22° SSE 18:11:28 84° E 18:15:56 10° N
Cosmos 1151 Rocket 3.7 18:07:45 10° NNE 18:11:49 37° E 18:12:54 32° ESE
EO 1 Del DPAF 4.1 18:12:41 10° NE 18:15:46 31° E 18:15:46 31° E
Resurs 01 Rocket 1.6 18:14:13 23° S 18:17:00 81° WSW 18:21:27 10° NNW
USA 229 DEB 3.5 18:11:22 10° SSW 18:17:50 74° ESE 18:24:33 10° NNE
USA 229 3.5 18:11:28 10° SSW 18:17:56 73° ESE 18:24:39 10° NNE
Delta 168 4.3 18:17:15 10° SW 18:18:44 16° SSW 18:18:44 16° SSW
NOSS 3-1 (A) 3.7 18:20:45 32° SE 18:21:31 34° ESE 18:26:40 10° NE
Cosmos 2237 4.1 18:16:53 10° SSW 18:22:32 77° ESE 18:28:14 10° NNE
Cosmos 1892 3.0 18:22:37 18° SSW 18:25:21 65° W 18:29:11 10° N
ADEOS Rocket 3.0 18:20:48 10° N 18:26:15 68° WNW 18:31:44 10° SSW
Cosmos 1140 Rocket 4.0 18:26:06 35° ESE 18:26:26 35° E 18:31:07 10° NE
H-2A R/B 3.0 18:22:47 11° S 18:27:45 48° W 18:32:58 10° NNW
Cosmos 1328 Rocket 3.4 18:24:06 10° N 18:28:28 73° E 18:29:38 46° SSE
Cosmos 2151 4.4 18:28:12 10° SSW 18:32:10 38° W 18:36:10 10° NNW
Iridium 4 Rocket 3.7 18:27:03 10° N 18:32:56 89° E 18:36:06 27° S
Cosmos 407 Rocket 3.4 18:29:51 21° S 18:33:23 73° ESE 18:38:42 10° NNE
Cosmos 1500 Rocket 3.6 18:33:52 51° SE 18:34:38 61° E 18:39:03 10° NNE
Cosmos 614 Rocket 3.8 18:33:03 34° S 18:35:10 65° ESE 18:40:11 10° NNE
MetOp-A 4.4 18:32:27 23° S 18:35:44 64° WSW 18:41:04 10° NNW
ERS-1 Rocket 3.8 18:37:31 32° E 18:38:02 33° ENE 18:42:30 10° N
COSMOS 2428 3.2 18:40:56 39° ESE 18:40:56 39° ESE 18:46:05 10° NE
Cosmos 1190 Rocket 3.8 18:38:45 29° S 18:41:23 78° ESE 18:46:36 10° NNE
Cosmos 1408 2.6 18:46:50 81° WNW 18:46:50 81° WNW 18:50:31 10° N
Nadezhda 4 Rocket 3.9 18:42:26 10° N 18:48:42 73° E 18:50:42 45° SSE
Cosmos 2360 Rocket 3.0 18:43:24 10° SW 18:48:52 51° WNW 18:54:21 10° N
Cosmos 2034 Rocket 4.3 18:45:50 14° SSW 18:51:16 64° W 18:57:31 10° N
SPOT 5 3.8 18:54:23 36° ENE 18:54:23 36° ENE 18:58:45 10° N
Thor Agena Rocket 3.3 18:50:25 10° NNE 18:55:27 68° ESE 18:55:52 65° SE
Cosmos 1743 Rocket 4.3 19:01:21 37° SW 19:02:36 50° W 19:06:50 10° N
Landsat 7 3.9 19:06:21 62° NE 19:06:21 62° NE 19:10:47 10° N
Cosmos 1092 Rocket 3.9 19:02:47 10° N 19:08:59 67° E 19:09:43 61° ESE
CZ-2C R/B 3.0 19:05:06 10° N 19:10:11 58° WNW 19:12:23 32° SW
Cosmos 1356 Rocket 4.0 19:11:09 10° N 19:14:36 57° N 19:14:36 57° N
Cosmos 1606 4.4 19:13:23 10° N 19:15:13 26° NNE 19:15:13 26° NNE
Cosmos 2219 Rocket 2.0 19:17:34 81° SE 19:17:46 82° ESE 19:23:27 10° NNE
SPOT 1/Viking Rocket 3.4 19:18:17 85° ENE 19:18:17 85° ENE 19:23:27 10° NNW
Cosmos 1515 Rocket 4.4 19:14:23 10° NNW 19:18:30 43° W 19:18:33 43° W
USA 267 3.5 19:18:03 47° E 19:19:37 58° NE 19:26:01 10° NNW
Centaur D-1AR AC-48 3.7 19:11:04 10° WSW 19:20:09 30° SSW 19:20:09 30° SSW
Cosmos 292 Rocket 4.4 19:16:02 10° N 19:19:52 46° NNE 19:19:52 46° NNE
Cosmos 1825 3.8 19:24:26 31° WNW 19:24:26 31° WNW 19:27:23 10° NNW
Cosmos 1634 Rocket 3.9 19:23:00 64° SSW 19:24:05 86° W 19:30:22 10° N
Cosmos 1805 Rocket 4.5 19:28:36 44° N 19:28:36 44° N 19:31:38 10° N
Cosmos 2333 Rocket 2.2 19:31:54 70° WSW 19:32:21 75° WNW 19:38:04 10° NNE
ASTEX 1 4.4 19:29:03 10° NNE 19:32:18 38° NE 19:32:18 38° NE
Terra 2.7 19:36:36 44° NNE 19:36:36 44° NNE 19:39:59 10° N
Cosmos 2278 Rocket 4.0 19:32:29 10° NNE 19:36:00 19° NE 19:36:00 19° NE
Meteor 2-3 Rocket 4.3 19:35:12 46° WSW 19:36:25 55° W 19:42:06 10° N
Cosmos 2142 Rocket 4.4 19:38:18 79° SSW 19:38:43 85° W 19:45:07 10° N
Cosmos 2026 Rocket 3.8 19:33:40 10° N 19:39:35 80° NE 19:39:35 80° NE
Cosmos 1818 4.5 19:37:07 10° NNW 19:41:30 40° NE 19:41:30 40° NE
Kakehashi 4.1 19:28:10 10° W 19:44:08 81° S 19:45:30 63° ESE
Cosmos 1844 Rocket 2.8 19:39:38 10° NNW 19:44:42 71° NW 19:44:42 71° NW
MOS 1 Rocket 4.3 19:42:32 10° N 19:45:37 43° N 19:45:37 43° N
Cosmos 1867 4.2 20:00:48 52° NNW 20:00:48 52° NNW 20:05:20 10° NNE
SL-16 R/B 4.3 20:24:14 17° NE 20:24:14 17° NE 20:25:41 10° NE
Cosmos 2237 Rocket 3.3 20:37:53 40° NNW 20:37:53 40° NNW 20:41:45 10° N
ATLAS 2AS CENTAUR R/B 4.4 21:06:18 27° ENE 21:06:18 27° ENE 21:10:22 10° NE
Lacrosse 4 Rocket 4.4 21:13:47 14° N 21:13:47 14° N 21:14:31 10° NNE
Mayak 1.7 21:07:45 10° NNW 21:08:34 14° NNW 21:08:34 14° NNW
ATLAS CENTAUR R/B 4.3 21:07:58 10° NNW 21:08:54 16° NNW 21:08:54 16° NNW
Lacrosse 5 4.2 21:09:37 10° N 21:12:13 18° NNE 21:12:13 18° NNE
COSMOS 2455 4.1 21:15:49 37° NNW 21:15:49 37° NNW 21:20:04 10° N
Cosmos 2278 Rocket 3.9 21:15:15 10° NNW 21:17:50 26° NW 21:17:50 26° NW
Cosmos 2369 Rocket 4.4 21:41:23 10° NNE 21:44:48 18° NE 21:44:48 18° NE
SL-16 R/B 4.1 22:06:05 22° NW 22:06:05 22° NW 22:09:16 10° N
ATLAS 3B R/B 4.4 22:36:23 10° N 22:41:51 26° NE 22:46:38 13° E
SL-16 R/B 3.8 22:45:38 32° ENE 22:46:10 33° ENE 22:51:34 10° N
ATLAS 2AS CENTAUR R/B 3.6 22:53:43 47° WNW 22:54:04 47° NW 23:01:50 10° NNE
Resurs 1-4 Rocket 3.5 22:52:32 10° NNE 22:55:45 33° NE 22:55:45 33° NE
Cosmos 1943 Rocket 3.6 22:52:14 10° NNW 22:55:04 32° NNW 22:55:04 32° NNW
ATLAS 5 CENTAUR R/B 3.5 22:52:56 10° NNW 22:56:32 39° NNW 22:56:32 39° NNW
USA 238 DEB 4.0 22:52:24 10° NNW 22:58:39 68° NNW 22:58:39 68° NNW
USA 238 4.0 22:52:30 10° NNW 22:58:48 69° NNW 22:58:48 69° NNW
ADEOS II 4.5 22:59:38 10° ENE 23:01:57 13° E 23:01:57 13° E
H-2A R/B 4.0 23:18:55 28° N 23:18:55 28° N 23:21:06 10° N
Milstar 3 Cent rocket 4.5 23:28:11 11° ESE 23:28:11 11° ESE 23:28:29 10° ESE
CZ-2D R/B 2.8 23:21:38 10° NNE 23:25:46 54° NNE 23:25:46 54° NNE
Cosmos 2369 Rocket 3.7 23:24:00 10° NNW 23:26:32 26° NW 23:26:32 26° NW
COSMOS 2406 4.4 23:44:26 31° ESE 23:44:48 31° ESE 23:49:43 10° NE
NOSS 3-2 (C) 4.0 23:38:09 10° NNW 23:46:06 87° WSW 23:49:07 46° SSE
Landsat 5 4.5 23:56:12 47° NE 23:56:12 47° NE 23:59:56 10° N
